Regional Weather Roundup
Issued by NWS San Angelo, TX

Home | Current Version | Previous Version | Text Only | Print | Product List | Glossary On
Versions: 1 2 3 4 5 6 7 8 9 10 11 12 13 14 15 16 17 18 19 20 21 22 23 24 25 26 27 28 29 30 31 32 33 34 35 36 37 38 39 40 41 42 43 44 45 46 47 48 49 50
000
ASUS44 KSJT 241010
RWRSJT
WEST CENTRAL TEXAS REGIONAL WEATHER ROUNDUP
NATIONAL WEATHER SERVICE SAN ANGELO TX
500 AM CDT SUN SEP 24 2017

NOTE: "FAIR" INDICATES FEW OR NO CLOUDS BELOW 12,000 FEET WITH NO
SIGNIFICANT WEATHER AND/OR OBSTRUCTIONS TO VISIBILITY.

TXZ049-054-064>066-071>073-076>078-098-099-113-114-127-128-139-140-
154-155-168>170-241100
...LOCATIONS ACROSS WEST CENTRAL TEXAS...

CITY           SKY/WX    TMP DP  RH WIND       PRES   REMARKS
SAN ANGELO     MOCLDY    74  63  68 S10       29.87R
ABILENE        CLOUDY    72  67  84 SE6G20    29.88S
DYESS AFB      CLOUDY    73  66  78 S16       29.86S
JUNCTION       PTCLDY    73  66  78 SE8       29.88F
SWEETWATER     PTCLDY    73  65  78 SE16G23   29.90S
BROWNWOOD      NOT AVBL
COLEMAN        SUNNY     72  65  80 SE8       29.89S
SONORA         PTCLDY    73  64  73 S10G17    29.91F
OZONA          PTSUNNY   72  63  73 S17G24    29.89S
BRADY          NOT AVBL
$$

TEXAS PANHANDLE/OKLAHOMA PANHANDLE

CITY           SKY/WX    TMP DP  RH WIND       PRES   REMARKS
AMARILLO       NOT AVBL
BORGER         LGT RAIN  64  63  96 SE10      29.86F
CANADIAN       MOCLDY    72  62  70 S13G18    29.87S
DALHART        CLOUDY    62  61  96 SE6       29.90S
DUMAS          CLOUDY    60  60  97 SE8       29.88F
GUYMON         NOT AVBL
HEREFORD       CLOUDY   N/A N/A N/A SE20      29.84F
PAMPA          CLOUDY    71  60  68 S14       29.90S
PERRYTON       CLOUDY    64  62  92 CALM      29.90R
$$

SOUTHERN PANHANDLE/SOUTH PLAINS/ROLLING PLAINS

CITY           SKY/WX    TMP DP  RH WIND       PRES   REMARKS
LUBBOCK        LGT RAIN  66  65  96 SE20      29.87F
SNYDER         CLOUDY    74  65  75 SE18      29.88S
CHILDRESS      CLOUDY    75  63  66 S12       29.87S
SEMINOLE       CLOUDY    65  65  97 SE9       29.86R
$$

PERMIAN BASIN

CITY           SKY/WX    TMP DP  RH WIND       PRES   REMARKS
MIDLAND        TSTM      67  64  90 NW10      29.87F VSB 3/4
ODESSA         CLOUDY    66  66 100 SE5       29.87F
WINK           RAIN      67  67 100 SE5       29.82S FOG
$$

FAR WEST/SOUTHWEST MOUNTAINS/TRANS PECOS

CITY           SKY/WX    TMP DP  RH WIND       PRES   REMARKS
ALPINE         CLOUDY    69  60  74 N3        29.99F
DRYDEN           N/A     75  67  76 SE16G26   29.80F
EL PASO        CLEAR     72  43  35 W6        29.86R
FORT STOCKTON  NOT AVBL
GUADALUPE PASS MOCLDY    60  58  92 CALM      29.97S FOG
MARFA          NOT AVBL
PECOS          LGT RAIN  66  65  97 S6        29.83F
$$

DALLAS/FORT WORTH METROPLEX

CITY           SKY/WX    TMP DP  RH WIND       PRES   REMARKS
DFW AIRPORT    PTCLDY    76  69  79 S7        29.88S
FTW MEACHAM    CLEAR     76  69  79 SE10      29.88S
DAL-EXECUTIVE  CLEAR     75  68  78 S5        29.89F
GRAND PRAIRIE  PTCLDY    75  67  74 SE5       29.91S
ADDISON        CLEAR     75  67  77 S7        29.91F
MESQUITE       SUNNY     70  67  92 E3        29.91S
LANCASTER      SUNNY     70  65  83 CALM      29.91S
$$

NORTH CENTRAL TEXAS

CITY           SKY/WX    TMP DP  RH WIND       PRES   REMARKS
SHRMAN/DENISON SUNNY     74  67  80 E7        29.92R
GAINESVILLE    CLEAR     70  66  88 SE5       29.91F
BRIDGEPORT     CLOUDY    70  65  84 CALM      29.90S
DENTON         PTCLDY    73  68  84 SE7       29.88F
WAXAHACHIE     SUNNY     71  67  88 CALM      29.92S
GRANBURY       MOSUNNY   74  67  80 SE5       29.89S
$$

WESTERN NORTH TEXAS

CITY           SKY/WX    TMP DP  RH WIND       PRES   REMARKS
WICHITA FALLS  CLOUDY    69  63  81 SE8       29.87S
VERNON         CLOUDY    72  60  65 SE7       29.87F
BRECKENRIDGE   MOSUNNY   74  65  73 S7        29.88S
COMANCHE       CLEAR     70  70 100 S6        29.90S
$$

CENTRAL AND SOUTH CENTRAL TEXAS

CITY           SKY/WX    TMP DP  RH WIND       PRES   REMARKS
AUSTIN/BERGSTM PTCLDY    72  71  97 CALM      29.87F FOG
WACO           CLEAR     73  69  87 SE8       29.89S
HILLSBORO      MOSUNNY   74  69  83 SE8       29.90F
TEMPLE         PTCLDY    72  70  94 SE6       29.89F
KILLEEN-GRAY   PTCLDY    72  70  94 S8        29.89R
FORT HOOD      CLOUDY    72  70  94 S10       29.86S
GEORGETOWN     CLOUDY    73  71  93 S5        29.91S
LAGO VISTA     CLOUDY    75  73  94 S7        29.91R
SAN MARCOS     CLOUDY    73  72  96 E5        29.88F
NEW BRAUNFELS  CLOUDY    75  73  93 E5        29.86F FOG
RANDOLPH AFB   CLOUDY    74  74 100 E8        29.87F
SAN ANTONIO    CLOUDY    76  72  87 SE10      29.87F
STINSON        MOCLDY    76  74  93 E5        29.84F
PLEASANTON     NOT AVBL
LA GRANGE      PTCLDY    73  73  99 CALM      29.86S FOG
GIDDINGS       SUNNY     68  67  97 CALM      29.89S FOG
$$

EAST TEXAS

CITY           SKY/WX    TMP DP  RH WIND       PRES   REMARKS
PARIS          CLEAR     70  68  93 E6        29.93S
CLARKSVILLE    NOT AVBL
TYLER          CLEAR     72  71  97 SE5       29.91S
LONGVIEW       CLEAR     71  70  96 E3        29.91S
PALESTINE      SUNNY     73  72  96 CALM      29.92S
NACOGDOCHES    CLEAR     69  69 100 CALM      29.92S FOG
$$

TEXAS HILL COUNTRY AND EDWARDS PLATEAU

CITY           SKY/WX    TMP DP  RH WIND       PRES   REMARKS
LLANO          SUNNY     70  68  94 CALM      29.92S
HORSESHOE BAY  FAIR      72  70  92 CALM      29.90R
KERRVILLE      CLOUDY    73  70  91 SE9       29.90F
FREDERICKSBRG  MOCLDY    72  67  85 S7        29.90F
ROCKSPRINGS    NOT AVBL
HONDO          MOCLDY    77  73  87 SE10      29.87S
UVALDE         CLOUDY    75  71  86 SE9       29.86S
DEL RIO        CLOUDY    77  70  79 E14G20    29.81S
$$

SOUTHEAST TEXAS

CITY           SKY/WX    TMP DP  RH WIND       PRES   REMARKS
COLLEGE STN    PTCLDY    72  71  97 E5        29.89F
CALDWELL       SUNNY     70  69  98 CALM      29.89F FOG
CROCKETT       MOSUNNY   72  70  94 CALM      29.94S FOG
BRENHAM        CLEAR     71  71  98 CALM      29.89F FOG
HUNTSVILLE     CLEAR     76  72  87 CALM      29.90S
CONROE         FOG       67  67 100 CALM      29.89F VSB 3/4
HOUSTON BUSH   PTCLDY    73  72  96 CALM      29.88S
HOUSTON HOBBY  PTCLDY    76  72  87 CALM      29.87S
PERLAND        CLEAR     75  70  84 CALM      29.88S
WHARTON        SUNNY     71  70  96 CALM      29.87F FOG
$$

THE UPPER TEXAS COAST

CITY           SKY/WX    TMP DP  RH WIND       PRES   REMARKS
ORANGE         SUNNY     72  72 100 CALM      29.90F FOG
PORT ARTHUR    PTCLDY    76  74  93 NE5       29.88S
GALVESTON      PTCLDY    82  74  76 SE9       29.87F
ANGLETON       CLEAR     73  71  93 CALM      29.87S
BAY CITY       SUNNY     73  73 100 E5        29.86S
$$

TEXAS COASTAL BEND, RIO GRANDE PLAINS DEEP SOUTH TEXAS

CITY           SKY/WX    TMP DP  RH WIND       PRES   REMARKS
VICTORIA       CLEAR     74  72  93 NE5       29.85F FOG
BEEVILLE       FAIR      70  70 100 E5        29.83F FOG
ROCKPORT       PTCLDY    81  74  79 SE10      29.81F
PORT ARANSAS   NOT AVBL
PORT LAVACA    NOT AVBL
CORPUS CHRISTI PTCLDY    76  74  93 SE6       29.82S
KINGSVILLE NAS MOCLDY    74  74 100 CALM      29.81S
COTULLA        MOCLDY    76  72  87 E7        29.82F
LAREDO         CLEAR     77  73  87 SE9       29.81F
BROWNSVILLE    CLEAR     77  76  96 CALM      29.80F
PORT ISABEL    CLEAR     79  75  87 SE7       29.80S
HEBBRONVILLE   SUNNY     73  71  92 SE5       29.83S
MCALLEN        PTCLDY    79  74  84 SE8       29.80F
WESLACO        PTCLDY    77  73  86 SE3       29.79S
FALFURRIAS     SUNNY    -38  32 100 CALM      29.82R
EDINBURG       MOSUNNY   77  73  90 SE5       29.80S
$$




USA.gov is the U.S. government's official web portal to all federal, state and local government web resources and services.